Probability
0 0 0 0 0 0 0 0 0 0 0 0 0 0 0 0 0 0 0 0 0 0 0 0 0 0 0 0 0 0 0 0 0 0 0 0 0 0 0 0 0 0 0
0 0 0 0 0 0 0 0 0 0 0 0 0 0 0 0 0 0 0 0 0 0 0 0 0 0 0 0 0 0 0 0 0 0 0 0 0 0 0 0 0 0 0
0 0 0 0 0 0 0 0 0 0 0 0 0 0 0 0 0 0 0 0 0 0 0 0 0 0 0 0 0 0 0 0 0 0 0 0 0 0 0 0 0 0 0
0 0 0 0 0 0 0 0 0 0 0 0 0 0 0 0 0 0 0 0 0 0 0 0 0 0 0 0 0 0 0 0 0 0 0 0 0 0 0 0 0 0 0
0 0 0 0 0 0 0 0 0 0 0 0 0 0 0 0 0 0 0 0 0 0 0 0 0 0 0 0 0 0 0 0 0 0 0 0 0 0 0 0 0 0 0
0 0 0 0 0 0 0 0 0 0 0 0 0 0 0 0 0 0 0 0 0 0 0 0 0 0 0 0 0 0 0 0 0 0 0 0 0 0 0 0 0 0 0
0 0 0 0 0 0 0 0 0 0 0 0 0 0 0 0 0 0 0 0 0 0 0 0 0 0 0 0 0 0 0 0 0 0 0 0 0 0 0 0 0 0 0
0 0 0 0 0 0 0 0 0 0 0 0 0 0 0 0 0 0 0 0 0 0 0 0 0 0 0 0 0 0 0 0 0 0 0 0 0 0 0 0 0 0 0
0 0 0 0 0 0 0 0 0 0 0 0 0 0 0 0 0 0 0 0 0 0 0 0 0 0 0 0 0 0 0 0 0 0 0 0 0 0 0 0 0 0 0
0 0 0 0 0 0 0 0 0 0 0 0 0 0 0 0 0 0 0 0 0 0 0 0 0 0 0 0 0 0 0 0 0 0 0 0 0 0 0 0 0 0 0
0 0 0 0 0 0 0 0 0 0 0 0 0 0 0 0 0 0 0 0 0 0 0 0 0 0 0 0 0 0 0 0 0 0 0 0 0 0 0 0 0 0 0
0 0 0 0 0 0 0 0 0 0 0 0 0 0 0 0 0 0 0 0 0 0 0 0 0 0 0 0 0 0 0 0 0 0 0 0 0 0 0 0 0 0 0
0 0 0 0 0 0 0 0 0 0 0 0 0 0 0 0 0 0 0 0 0 0 0 0 0 0 0 0 0 0 0 0 0 0 0 0 0 0 0 0 0 0 0
0 0 0 0 0 0 0 0 0 0 0 0 0 0 0 0 0 0 0 0 0 0 0 0 0 0 0 0 0 0 0 0 0 0 0 0 0 0 0 0 0 0 0
0 0 0 0 0 0 0 0 0 0 0 0 0 0 0 0 0 0 0 0 0 0 0 0 0 0 0 0 0 0 0 0 0 0 0 0 0 0 0 0 0 0 0
0 0 0 0 0 0 0 0 0 0 0 0 0 0 0 0 0 0 0 0 0 0 0 0 0 0 0 0 0 0 0 0 0 0 0 0 0 0 0 0 0 0 0
0 0 0 0 0 0 0 0 0 0 0 0 0 0 0 0 0 0 0 0 0 0 0 0 0 0 0 0 0 0 0 0 0 0 0 0 0 0 0 0 0 0 0
0 0 0 0 0 0 0 0 0 0 0 0 0 0 0 0 0 0 0 0 0 0 0 0 0 0 0 0 0 0 0 0 0 0 0 0 0 0 0 0 0 0 0
0 0 0 0 0 0 0 0 0 0 0 0 0 0 0 0 0 0 0 0 0 0 0 0 0 0 0 0 0 0 0 0 0 0 0 0 0 0 0 0 0 0 0
0 0 0 0 0 0 0 0 0 0 0 0 0 0 0 0 0 0 0 0 0 0 0 0 0 0 0 0 0 0 0 0 0 0 0 0 0 0 0 0 0 0 0
0 0 0 0 0 0 0 0 0 0 0 0 0 0 0 0 0 0 0 0 0 0 0 0 0 0 0 0 0 0 0 0 0 0 0 0 0 0 0 0 0 0 0
0 0 0 0 0 0 0 0 0 0 0 0 0 0 0 0 0 0 0 0 0 0 0 0 0 0 0 0 0 0 0 0 0 0 0 0 0 0 0 0 0 0 0
0 0 0 0 0 0 0 0 0 0 0 0 0 0 0 0 0 0 0 0 0 0 0 0 0 0 0 0 0 0 0 0 0 0 0 0 0 0 0 0 0 0 0
0 0 0 0 0 0 0 0 0 0 0 0 0 0 0 0 0 0 0 0 0 0 0 0 0 0 0 0 0 0 0 0 0 0 0 0 0 0 0 0 0 0 0
0 0 0 0 0 0 0 0 0 0 0 0 0 0 0 0 0 0 0 0 0 0 0 0 0 0 0 0 0 0 0 0 0 0 0 0 0 0 0 0 0 0 0
0 0 0 0 0 0 0 0 0 0 0 0 0 0 0 0 0 0 0 0 0 0 0 0 0 0 0 0 0 0 0 0 0 0 0 0 0 0 0 0 0 0 0
Wind_Speed
7 7 6 6 7 7 7 7 8 9 9 10 9 10 11 11 10 9 7 13 16 18 19 19 19 19 18 18 17 17 16 16 15 15 14 13 13 12 11 11 10 9 8
8 8 8 8 8 8 8 8 10 9 9 9 11 12 12 12 12 12 10 11 17 19 21 21 22 21 21 21 20 20 19 19 18 17 17 16 15 15 14 13 12 12 11
10 9 8 8 9 9 10 9 11 9 9 10 12 14 12 13 13 13 13 11 11 17 22 23 24 24 24 24 23 22 22 21 21 20 19 19 18 17 17 16 15 14 13
12 10 9 9 9 8 8 8 9 9 10 10 11 11 11 11 14 15 13 13 11 11 16 23 26 27 27 27 26 25 25 24 23 23 22 22 21 20 19 19 18 17 16
11 10 9 9 10 8 8 8 9 10 11 11 11 11 11 11 13 13 15 16 15 14 13 17 24 28 29 29 29 28 28 27 26 26 25 24 23 23 22 21 20 19 18
10 10 9 11 10 8 8 9 11 11 10 10 11 12 12 13 13 14 16 15 15 17 17 16 15 18 28 31 31 31 30 30 29 28 27 27 26 25 24 23 23 22 21
10 10 9 10 9 9 11 12 11 12 10 9 9 10 13 15 16 14 14 14 16 17 17 17 14 13 12 25 31 33 33 32 32 31 30 29 28 28 27 26 25 24 23
10 9 11 10 10 9 12 12 11 9 8 7 7 8 9 10 11 12 12 13 14 13 14 16 16 16 13 11 16 27 32 34 34 33 32 31 31 30 29 28 27 26 25
9 9 11 11 10 10 10 12 11 13 10 9 9 8 8 8 7 6 10 11 12 12 12 13 16 16 17 14 13 20 28 31 33 34 34 33 32 32 31 30 29 28 27
7 8 10 10 11 10 11 12 12 11 12 10 9 10 12 10 9 9 7 9 12 13 14 12 14 15 16 14 16 22 25 27 30 33 34 34 34 34 33 32 31 30 29
6 7 8 9 10 9 11 12 12 12 11 12 10 10 12 12 14 12 14 13 12 12 13 14 13 13 15 16 14 19 26 28 29 30 32 33 34 35 35 34 33 32 31
5 6 7 8 9 9 11 11 12 14 13 14 12 11 12 11 11 12 15 15 14 13 14 12 13 13 14 15 18 23 27 28 29 30 30 31 33 34 35 35 34 33 32
6 7 7 8 9 9 10 11 11 13 14 15 15 13 12 13 13 13 15 16 17 15 15 13 13 13 13 14 15 23 26 29 29 30 30 31 31 32 33 34 34 34 33
7 9 9 9 11 11 11 11 11 13 12 14 16 16 13 13 13 13 14 14 16 16 16 18 13 13 13 13 15 19 18 26 29 29 30 30 31 31 32 33 34 34 33
8 10 10 11 11 12 12 12 11 13 13 14 14 16 14 13 13 13 13 13 14 17 19 18 14 14 12 12 14 15 17 22 26 28 28 29 30 31 31 32 33 33 32
10 11 12 12 13 13 13 13 13 13 15 15 13 16 16 13 13 13 13 13 14 15 19 16 14 13 13 11 16 17 17 23 26 27 27 28 29 29 30 31 32 32 32
12 12 13 13 14 14 14 14 15 16 16 16 16 17 18 18 14 13 13 13 14 14 18 20 15 14 17 16 14 15 15 16 15 24 26 27 28 28 29 30 31 32 32
13 13 14 14 15 15 15 16 17 17 17 18 18 18 19 15 18 15 14 15 14 15 16 22 18 14 17 16 15 16 14 13 14 19 24 26 27 27 28 29 30 31 31
14 14 15 15 15 15 16 17 17 18 18 18 18 18 18 18 18 15 16 15 13 13 14 17 19 14 13 12 13 15 16 15 15 16 21 24 26 27 28 29 29 30 30
15 16 16 16 16 15 15 16 16 17 18 18 18 18 18 18 18 18 16 16 15 14 14 15 16 14 12 12 11 12 13 12 13 12 16 17 20 25 27 28 29 28 28
15 16 16 17 16 14 12 13 13 16 17 18 18 18 18 21 24 21 16 14 13 13 13 14 14 14 12 10 11 10 12 12 13 11 11 11 12 12 15 22 27 27 27
16 16 16 17 17 13 19 24 22 18 17 17 17 17 18 20 22 26 28 27 22 16 14 14 14 15 15 13 12 11 11 11 11 9 11 12 10 11 11 11 18 24 27
17 17 17 17 18 18 23 25 26 20 18 17 17 16 14 14 20 16 19 24 24 27 26 17 16 16 16 14 12 14 13 13 14 9 8 10 10 11 10 12 20 22 24
16 16 17 18 18 18 23 25 25 20 17 17 17 17 17 17 16 16 14 14 15 16 18 15 13 14 15 13 12 13 13 13 13 10 9 9 9 10 10 10 17 22 23
16 16 16 18 18 19 22 24 24 15 14 16 16 16 17 17 21 25 18 15 16 14 18 23 24 22 24 25 19 10 11 10 11 10 10 9 8 9 9 9 12 20 22
16 16 16 17 18 18 21 24 24 12 13 13 13 14 19 20 23 25 17 15 16 14 13 13 15 17 16 17 21 13 9 10 9 8 10 9 8 7 6 8 9 9 13
Wind_Direction
225 230 235 236 239 241 239 243 247 252 252 254 253 255 257 256 255 252 252 248 252 256 259 261 262 262 258 255 252 250 248 248 248 247 247 246 246 247 248 249 249 250 253
231 234 241 241 244 244 246 249 252 256 257 256 257 256 257 258 255 253 251 250 247 250 253 256 258 259 259 257 254 250 247 246 245 245 245 245 244 244 245 246 247 248 249
237 238 243 245 245 246 248 251 256 259 260 260 260 260 259 257 256 255 253 251 248 245 247 250 253 255 256 256 255 252 249 246 244 243 243 243 243 243 243 243 244 244 246
242 245 247 249 250 249 248 249 253 255 256 257 261 261 258 255 256 256 254 249 247 247 244 244 247 250 251 252 253 252 250 247 244 242 241 240 240 240 241 241 242 242 242
245 245 249 252 253 249 248 250 252 254 260 261 263 264 262 260 258 255 253 251 247 245 246 246 245 247 248 249 249 249 249 247 245 243 240 239 238 238 239 239 239 240 240
245 247 250 254 254 248 247 248 252 254 258 267 273 271 266 262 257 254 253 252 248 244 243 245 245 245 245 246 247 247 247 246 245 243 241 239 238 236 237 237 238 238 238
250 246 249 254 250 247 250 253 255 258 258 261 271 272 263 255 250 248 247 248 247 244 242 242 241 241 244 243 245 246 246 245 244 243 242 240 238 236 235 235 236 236 236
255 252 252 253 252 251 254 255 253 255 258 247 250 278 284 273 247 238 242 244 248 247 244 242 240 239 240 242 242 243 245 245 245 243 242 241 239 237 235 234 234 234 235
262 255 255 257 256 252 254 255 251 247 251 250 232 244 268 278 303 253 237 243 246 246 246 244 242 241 239 238 242 241 242 245 246 245 243 241 240 238 236 234 233 233 233
271 265 262 261 260 256 256 256 253 250 249 254 248 234 242 263 278 287 257 244 248 253 254 251 247 245 242 240 238 239 241 243 245 246 246 244 242 240 238 235 233 232 232
281 274 269 266 262 260 259 259 258 253 247 248 250 249 246 248 248 257 273 274 265 255 252 253 253 250 245 242 240 240 241 242 243 245 246 246 244 242 240 237 234 232 231
294 285 279 271 267 265 264 262 260 257 253 251 250 248 248 247 246 249 263 269 270 268 263 254 250 250 249 247 245 243 242 243 244 245 246 246 246 245 243 240 237 234 231
303 302 292 282 276 271 268 266 263 260 257 255 253 251 249 249 251 255 264 272 274 274 270 263 254 250 248 248 249 245 246 246 247 246 246 245 245 246 245 243 240 237 233
303 304 295 286 282 279 274 268 265 262 261 259 257 256 254 253 251 251 255 267 275 275 268 264 255 248 247 248 249 245 250 249 249 248 246 245 244 244 245 244 243 240 237
299 296 293 289 285 282 278 275 268 268 266 263 262 261 258 256 253 253 253 252 260 273 274 272 268 260 250 248 249 249 250 251 250 250 249 246 244 243 243 243 242 241 239
298 295 293 291 288 285 281 277 274 272 272 269 266 265 263 262 259 255 253 252 250 256 270 272 270 269 264 254 254 254 254 255 253 252 251 249 246 244 242 241 240 239 238
298 295 294 292 290 288 286 281 277 277 275 274 271 268 267 266 265 262 258 255 252 251 261 271 269 268 264 258 254 253 255 255 254 251 251 251 249 246 244 242 240 239 237
298 296 294 291 289 288 286 284 283 282 279 277 276 275 273 272 267 265 261 258 256 253 257 268 273 271 267 263 258 256 255 255 255 255 253 252 251 249 246 243 241 239 237
298 296 293 291 290 289 287 285 285 285 282 280 279 277 275 273 270 267 265 262 260 259 256 262 270 270 268 263 260 255 254 254 256 257 255 252 252 251 248 244 241 239 237
299 297 295 292 290 288 285 284 285 284 283 281 279 276 273 271 269 269 267 265 264 262 260 260 265 267 264 260 254 253 252 248 249 251 252 251 251 251 250 247 243 240 237
297 296 294 292 291 288 281 280 280 279 278 278 276 273 270 269 267 267 264 261 257 257 258 258 261 262 259 252 245 243 248 251 249 243 246 245 245 244 241 244 243 241 239
299 297 295 293 292 288 289 291 291 288 285 282 281 279 276 274 273 272 272 270 266 261 258 257 260 259 260 254 248 241 241 243 248 232 234 240 235 239 237 236 237 238 238
300 299 296 295 293 293 295 295 295 293 289 285 284 283 280 278 279 274 275 276 276 274 269 264 262 261 262 256 251 244 237 236 241 236 228 240 231 235 233 235 237 238 239
301 299 298 297 296 296 298 299 300 296 289 286 284 283 283 282 279 277 272 268 266 266 266 268 262 263 264 262 251 246 247 245 247 240 221 238 233 233 231 230 234 235 236
301 300 299 298 297 298 299 301 301 296 289 287 285 283 282 281 281 282 278 272 271 267 267 265 262 262 261 258 250 242 235 236 240 230 215 224 234 235 232 228 228 230 232
300 301 298 297 297 297 300 301 302 295 292 290 288 285 283 283 284 285 281 277 275 273 270 268 265 266 266 266 263 250 235 234 235 231 207 206 219 217 231 226 223 221 226